TimeMDT,TemperatureF,Dew PointF,Humidity,Sea Level PressureIn,VisibilityMPH,Wind Direction,Wind SpeedMPH,Gust SpeedMPH,PrecipitationIn,Events,Conditions,WindDirDegrees,DateUTC
12:55 AM,63.0,39.9,43,29.85,10.0,NE,3.5,-,0.00,,Scattered Clouds,40,2013-07-12 06:55:00
1:55 AM,61.0,41.0,48,29.86,10.0,Calm,Calm,-,N/A,,Clear,0,2013-07-12 07:55:00
2:55 AM,55.0,42.1,62,29.87,10.0,ESE,4.6,-,N/A,,Clear,110,2013-07-12 08:55:00
3:55 AM,55.0,41.0,59,29.87,10.0,Calm,Calm,-,N/A,,Clear,0,2013-07-12 09:55:00
4:55 AM,53.1,41.0,64,29.88,10.0,SSE,4.6,-,N/A,,Clear,160,2013-07-12 10:55:00
5:55 AM,51.1,39.0,63,29.89,10.0,Calm,Calm,-,N/A,,Clear,0,2013-07-12 11:55:00
6:55 AM,51.1,39.9,66,29.89,10.0,Calm,Calm,-,N/A,,Clear,0,2013-07-12 12:55:00
7:55 AM,55.9,41.0,57,29.88,10.0,Calm,Calm,-,N/A,,Clear,0,2013-07-12 13:55:00
8:55 AM,61.0,41.0,48,29.87,10.0,Calm,Calm,-,N/A,,Unknown,0,2013-07-12 14:55:00
9:55 AM,66.0,41.0,40,29.84,10.0,ENE,4.6,-,N/A,,Unknown,60,2013-07-12 15:55:00
10:55 AM,71.1,39.9,32,29.81,10.0,NE,3.5,-,N/A,,Clear,40,2013-07-12 16:55:00
11:55 AM,75.9,41.0,29,29.77,10.0,Calm,Calm,-,N/A,,Partly Cloudy,0,2013-07-12 17:55:00
12:55 PM,82.0,33.1,17,29.74,10.0,WNW,8.1,23.0,N/A,,Partly Cloudy,300,2013-07-12 18:55:00
1:55 PM,86.0,23.0,10,29.72,10.0,SW,18.4,28.8,N/A,,Clear,230,2013-07-12 19:55:00
2:55 PM,87.1,23.0,10,29.72,10.0,SW,11.5,27.6,N/A,,Clear,220,2013-07-12 20:55:00
3:41 PM,84.2,24.8,11,29.93,10.0,SW,13.8,24.2,N/A,,Clear,230,2013-07-12 21:41:00
3:55 PM,86.0,24.1,10,29.73,10.0,SW,13.8,23.0,N/A,,Clear,220,2013-07-12 21:55:00
4:55 PM,84.0,24.1,11,29.73,10.0,SSW,16.1,26.5,N/A,,Clear,200,2013-07-12 22:55:00
5:55 PM,82.9,21.0,10,29.72,10.0,WSW,16.1,20.7,N/A,,Clear,250,2013-07-12 23:55:00
6:55 PM,84.0,18.0,9,29.71,10.0,SW,16.1,25.3,N/A,,Clear,230,2013-07-13 00:55:00
7:55 PM,82.9,24.1,12,29.72,10.0,Variable,4.6,-,N/A,,Clear,0,2013-07-13 01:55:00
8:55 PM,79.0,23.0,13,29.91,10.0,West,12.7,-,N/A,,Clear,280,2013-07-13 02:55:00
9:55 PM,72.0,25.0,17,29.74,10.0,West,9.2,-,N/A,,Clear,270,2013-07-13 03:55:00
10:55 PM,66.9,28.9,24,29.76,10.0,SE,4.6,-,N/A,,Clear,140,2013-07-13 04:55:00
11:55 PM,63.0,28.0,27,29.77,10.0,Calm,Calm,-,N/A,,Clear,0,2013-07-13 05:55:00